Change the Weather History Date:

Saturday, February 8, 2014

  Actual Average Record
Temperature  
Mean Temperature 78 °F -  
Max Temperature 86 °F 82 °F 86 °F (1997)
Min Temperature 70 °F 73 °F 65 °F (2015)
Cooling Degree Days 13    
Growing Degree Days 28 (Base 50)    
Moisture  
Dew Point 71 °F    
Average Humidity 75    
Maximum Humidity 83    
Minimum Humidity 60    
Precipitation  
Precipitation 0.08 in - - ()
Sea Level Pressure  
Sea Level Pressure 29.98 in    
Wind  
Wind Speed 4 mph ()    
Max Wind Speed 12 mph    
Max Gust Speed -    
Visibility 6.5 miles    
Events Rain    
Averages and records for this station are not official NWS values.
T = Trace of Precipitation, MM = Missing Value Source: Averaged Metar Reports

Daily Weather History Graph

Daily Weather History Graph

Search for Another Location

Airport or City:

Trip Planner

Search our weather history database for the weather conditions in past years. The results will help you decide how hot, cold, wet, or windy it might be!

Date:

Astronomy

Feb. 08, 2014 Rise Set
Actual Time 6:14 AM CST 5:46 PM CST
Civil Twilight 5:52 AM CST 6:08 PM CST
Nautical Twilight 5:26 AM CST 6:34 PM CST
Astronomical Twilight 5:01 AM CST 6:59 PM CST
Moon 12:52 PM CST (2/8) 1:14 AM CST (2/8)
Length of Visible Light 12h 16m
Length of Day
11h 31m
Waxing Gibbous, 69% of the Moon is Illuminated
Feb 8
Waxing Gibbous
Feb 14
Full
Feb 22
Last Quarter
Mar 1
New
Mar 8
First Quarter

Hourly Weather History & Observations

Time (CST) Temp. Heat Index Dew Point Humidity Pressure Visibility Wind Dir Wind Speed Gust Speed Precip Events Conditions
6:00 AM 77 °F - 71 °F 77% 29.98 in 9 mi SSE 4.6 mph - -   Haze
6:00 AM 77.0 °F - 71.6 °F 83% 29.98 in 6.2 mi SSE 4.6 mph - N/A   Mostly Cloudy
7:00 AM 77.0 °F - 69.8 °F 78% 30.01 in 6.2 mi SSE 4.6 mph - N/A   Mostly Cloudy
8:00 AM 77.0 °F - 71.6 °F 83% 30.01 in 3.1 mi Calm Calm - N/A   Light Drizzle
9:00 AM 78 °F - 71 °F 73% 30.03 in 6 mi SSE 2.3 mph - - Rain Light Drizzle
9:00 AM 77.0 °F - 71.6 °F 83% 30.04 in 6.2 mi SSE 2.3 mph - N/A   Mostly Cloudy
10:00 AM 77.0 °F - 71.6 °F 83% 30.04 in 1.2 mi SSE 11.5 mph - N/A Rain Heavy Rain
11:00 AM 80.6 °F 84.6 °F 71.6 °F 74% 30.01 in 6.2 mi SE 4.6 mph - N/A   Mostly Cloudy
12:00 PM 79 °F - 71 °F 70% 30.00 in 10 mi ESE 4.6 mph - -   Haze
12:00 PM 78.8 °F - 71.6 °F 78% 30.01 in 6.2 mi ESE 4.6 mph - N/A   Mostly Cloudy
1:00 PM 82.4 °F 87.2 °F 71.6 °F 70% 29.98 in 6.2 mi East 4.6 mph - N/A   Mostly Cloudy
2:00 PM 80.6 °F 83.9 °F 69.8 °F 70% 29.95 in 6.2 mi East 6.9 mph - N/A   Mostly Cloudy
3:00 PM 82 °F - 70 °F 60% 29.94 in 10 mi ENE 9.2 mph - -   Haze
3:00 PM 82.4 °F 86.3 °F 69.8 °F 66% 29.92 in 6.2 mi ENE 9.2 mph - N/A   Mostly Cloudy
4:00 PM 80.6 °F 84.6 °F 71.6 °F 74% 29.95 in 6.2 mi NNE 6.9 mph - N/A   Mostly Cloudy
5:00 PM 78.8 °F - 71.6 °F 78% 29.95 in 6.2 mi NNE 4.6 mph - N/A   Mostly Cloudy
6:00 PM 78 °F - 69 °F 68% 29.96 in 10 mi NE 5.8 mph - -   Haze
6:00 PM 78.8 °F - 69.8 °F 74% 29.95 in 6.2 mi NE 5.8 mph - N/A   Mostly Cloudy
7:00 PM 77.0 °F - 71.6 °F 83% 29.98 in 6.2 mi NNE 3.5 mph - N/A   Mostly Cloudy
8:00 PM 77.0 °F - 71.6 °F 83% 29.98 in 6.2 mi NNE 5.8 mph - N/A   Partly Cloudy